sat.trackr.live / text

‹ back to catalog

COSMOS 2407

NORAD 28380 · 2004-028A

PAYLOAD ACTIVE UNKNOWN

§ Identity

Operator
Country
CIS
Launch date
2004-07-22
Launch site
PLMSC
Launch vehicle
Mass (kg)
RCS (m²)
1.85

Purposes: nav

External: N2YO · Heavens-Above · Gunter

§ Orbital elements

Epoch: 2026-09-19T06:36:44.922816Z

Period
104.63 min
Inclination
82.9650°
Eccentricity
0.0038876
Mean motion
13.76340577 rev/d
Perigee alt
948.3 km
Apogee alt
1,005.5 km
Semi-major
7,355.0 km
B*
3.3216e-5
RAAN
5.1404°
Arg perigee
351.2478°
Mean anomaly
37.2111°
Rev number
11,282

§ Raw data

COSMOS 24071 28380U 04028A   26262.27551994  .00000048  00000+0  33216-4 0  99952 28380  82.9650   5.1404 0038876 351.2478  37.2111 13.76340577112821

JSON: /api/v1/satellites/28380 · /tle

For live sub-satellite position, see the globe view (requires WebGL).

§ Visibility from observer

Set your observer location to see the next 7 days of passes ≥ 10°. The values pass through the URL so the page stays shareable.

No JS? Fill the form by hand. The geolocation button needs JavaScript.

§ Radio — SatNOGS DB

ModeDescriptionDownlinkUplink
CW Mode U Tracking Beacon 399.920 MHz
FSK Mode V 149.970 MHz

2 transmitters · refreshed weekly from db.satnogs.org